This demonstration page uses our WeatherBlox Daily Observations layout. Learn more.

Left ArrowRight Arrow

41.55636, -103.73856

Hourly Observations for April 19, 2020

Temp ( °F °C ) Dew Point ( °F °C ) Humidity (%) Winds ( mph kmh ) Pressure ( in mb ) Visibility ( mi km ) Precip ( " mm )
6:58 pm 18:58 Clear 56 13.1 21 -6.2 26 26 W 7 11 29.80 1009 10 16 0.00 0.00
7:58 pm 19:58 Clear 49 9.6 19 -7.4 30 30 SSW 6 9 29.78 1009 10 16 0.00 0.00
8:58 pm 20:58 Clear 44 6.5 29 -1.5 57 57 SW 9 15 29.80 1009 10 16 0.00 0.00
9:58 pm 21:58 Partly Cloudy 44 6.8 28 -2.1 53 53 NNE 7 11 29.83 1010 10 16 0.00 0.00
10:58 pm 22:58 Mostly Clear 38 3.5 29 -1.6 70 70 E 10 17 29.88 1012 10 16 0.00 0.00
11:58 pm 23:58 Clear 38 3.2 30 -1.2 73 73 E 13 20 29.89 1012 10 16 0.00 0.00
12:58 am 00:58 Clear 35 1.7 29 -1.5 80 80 E 13 20 29.91 1013 10 16 0.00 0.00
1:58 am 01:58 Clear 34 1 29 -1.7 82 82 E 9 15 29.90 1012 10 16 0.00 0.00
2:58 am 02:58 Clear 36 2.1 30 -1.1 80 80 ESE 8 13 29.90 1012 10 16 0.00 0.00
3:58 am 03:58 Clear 31 -0.8 27 -2.6 88 88 Calm 29.92 1013 10 16 0.00 0.00
4:58 am 04:58 Clear 28 -2 26 -3.3 91 91 W 6 9 29.94 1014 10 16 0.00 0.00
5:58 am 05:58 Mostly Cloudy 30 -1.2 28 -2.4 92 92 WSW 6 9 29.95 1014 10 16 0.00 0.00
6:58 am 06:58 Cloudy 33 0.5 31 -0.8 91 91 SSW 3 6 29.96 1015 10 16 0.00 0.00
7:58 am 07:58 Mostly Cloudy 37 2.7 33 0.3 84 84 SSW 5 7 29.98 1015 10 16 0.00 0.00
8:58 am 08:58 Mostly Cloudy 42 5.5 34 1.2 74 74 Calm 29.98 1015 10 16 0.00 0.00
9:58 am 09:58 Mostly Cloudy 47 8.2 33 0.5 59 59 S 9 15 29.95 1014 10 16 0.00 0.00
10:58 am 10:58 Mostly Cloudy 50 10.1 32 0.2 51 51 SW 16 26 29.94 1014 10 16 0.00 0.00
11:58 am 11:58 Mostly Sunny 55 12.7 32 0.2 43 43 SSW 18 30 29.89 1012 10 16 0.00 0.00
12:58 pm 12:58 Mostly Sunny 58 14.3 29 -1.6 34 34 SW 16 26 29.86 1011 10 16 0.00 0.00
1:58 pm 13:58 Partly Cloudy 60 15.7 24 -4.4 25 25 W 12 19 29.80 1009 10 16 0.00 0.00
2:58 pm 14:58 Mostly Cloudy 58 14.6 26 -3.4 29 29 N 9 15 29.78 1009 10 16 0.00 0.00
3:58 pm 15:58 Mostly Cloudy 60 15.7 25 -3.7 26 26 N 17 28 29.78 1008 10 16 0.00 0.00
4:58 pm 16:58 Mostly Sunny 61 16.1 22 -5.8 22 22 NNW 18 30 29.80 1009 10 16 0.00 0.00
5:58 pm 17:58 Sunny 55 12.6 33 0.3 43 43 N 15 24 29.86 1011 10 16 0.00 0.00

Powered by AerisWeather